This demonstration page uses our WeatherBlox Daily Observations layout. Learn more.

Left ArrowRight Arrow

39.92423, -83.80882

Hourly Observations for August 12, 2019

Temp ( °F °C ) Dew Point ( °F °C ) Humidity (%) Winds ( mph kmh ) Pressure ( in mb ) Visibility ( mi km ) Precip ( " mm )
12:56 am 00:56 Clear 68 20 61 16.1 78 78 SSE 6 9 30 1016 10 16.0934 N/A
1:56 am 01:56 Clear 66 18.9 61 16.1 84 84 SSE 3 6 30 1016 10 16.0934 N/A
2:56 am 02:56 Clear 63 17.2 60 15.6 90 90 SE 3 6 29.99 1016 10 16.0934 N/A
3:56 am 03:56 Clear 66 18.9 60 15.6 81 81 SSE 7 11 29.99 1016 10 16.0934 N/A
4:56 am 04:56 Clear 61 16.1 59 15 93 93 N N/A 29.98 1015 10 16.0934 N/A
5:56 am 05:56 Clear 61 16.1 59 15 93 93 N N/A 29.98 1015 10 16.0934 N/A
6:56 am 06:56 Sunny 61 16.1 59 15 93 93 SE 3 6 29.98 1015 10 16.0934 N/A
7:56 am 07:56 Sunny 67 19.4 61 16.1 81 81 SSE 5 7 29.98 1015 10 16.0934 N/A
8:56 am 08:56 Sunny 73 22.8 63 17.2 71 71 SSE 6 9 29.99 1016 10 16.0934 N/A
9:56 am 09:56 Sunny 77 25 63 17.2 62 62 VRB 3 6 29.99 1016 10 16.0934 N/A
10:56 am 10:56 Sunny 81 27.2 65 18.3 58 58 SSW 8 13 29.97 1015 10 16.0934 N/A
11:56 am 11:56 Sunny 83 28.3 65 18.3 55 55 S 7 11 29.96 1015 10 16.0934 N/A
12:56 pm 12:56 Mostly Sunny 82 27.8 66 18.9 58 58 SSW 8 13 29.96 1015 10 16.0934 N/A
1:56 pm 13:56 Cloudy 82 27.8 67 19.4 60 60 SSW 6 9 29.95 1014 10 16.0934 N/A
2:56 pm 14:56 Cloudy 80 26.7 67 19.4 64 64 SSW 7 11 29.94 1014 10 16.0934 N/A
3:56 pm 15:56 Cloudy 80 26.7 68 20 67 67 SW 5 7 29.92 1013 10 16.0934 0.001 0.001
4:56 pm 16:56 Partly Cloudy 81 27.2 65 18.3 58 58 VRB 3 6 29.88 1012 10 16.0934 N/A
5:56 pm 17:56 Sunny 81 27.2 68 20 65 65 SSE 5 7 29.88 1012 10 16.0934 N/A
6:56 pm 18:56 Cloudy 80 26.7 68 20 67 67 WSW 6 9 29.89 1012 10 16.0934 N/A
7:56 pm 19:56 Mostly Cloudy 80 26.7 68 20 67 67 N N/A 29.88 1012 10 16.0934 N/A
8:56 pm 20:56 Mostly Clear 76 24.4 68 20 77 77 N N/A 29.87 1012 10 16.0934 N/A
9:56 pm 21:56 Mostly Cloudy 75 23.9 69 20.6 82 82 N N/A 29.88 1012 10 16.0934 0.001 0.001
10:56 pm 22:56 Mostly Cloudy 74 23.3 69 20.6 85 85 S 3 6 29.86 1011 10 16.0934 N/A
11:56 pm 23:56 Mostly Cloudy 73 22.8 69 20.6 87 87 SSE 5 7 29.84 1011 10 16.0934 N/A

Powered by AerisWeather